Tracking 30105 objects as of 24-Jan-2025
HD Live streaming from Space Station
objects crossing your sky now

SIRIO

Track SIRIO now!
SIRIO is classified as:


NORAD ID: 10294
Int'l Code: 1977-080A
Perigee: 35,766.9 km
Apogee: 35,820.6 km
Inclination: 8.4 °
Period: 1,436.1 minutes
Semi major axis: 42164 km
RCS: 0.14 m2 (medium)
Launch date: August 25, 1977
Source: Italy (IT)
Launch site: AIR FORCE EASTERN TEST RANGE (AFETR)
Your satellite tracking list
Your tracking list is empty




NASA's NSSDC Master Catalog

Two Line Element Set (TLE):
1 10294U 77080A   25020.83813903 -.00000064  00000-0  00000-0 0  9993
2 10294   8.3717 303.2202 0006368 151.2684  41.9669  1.00271856112780
Source of the keplerian elements: AFSPC